Charleston, SC

12:59 AM EDT on September 25, 2017 (GMT -0400)
Charleston Air Force Base-International

Weather History for KCHS - October, 2011

Change the Weather History Date:

Friday, October 14, 2011

  Actual Average Record
Temperature  
Mean Temperature 69 °F 67 °F  
Max Temperature 79 °F 78 °F 88 °F (1990)
Min Temperature 59 °F 57 °F 39 °F (1988)
Degree Days  
Heating Degree Days 0 2  
Month to date heating degree days 17 16  
Since 1 July heating degree days 17 19  
Cooling Degree Days 4 4  
Month to date cooling degree days 54 78  
Year to date cooling degree days 2641 2216  
Growing Degree Days 18 (Base 50)    
Moisture  
Dew Point 54 °F    
Average Humidity 65    
Maximum Humidity 100    
Minimum Humidity 30    
Precipitation  
Precipitation 0.00 in 0.12 in 1.22 in (1954)
Month to date precipitation 0.95 1.99  
Year to date precipitation 34.00 43.73  
Snow  
Snow 0.00 in 0.00 in - ()
Month to date snowfall 0.0  
Since 1 July snowfall 0.0 0.0  
Since 1 September snowfall 0.0 0.0  
Snow Depth 0.00 in    
Sea Level Pressure  
Sea Level Pressure 29.80 in    
Wind  
Wind Speed 10 mph (West)    
Max Wind Speed 21 mph    
Max Gust Speed 30 mph    
Visibility 10 miles    
Events Rain    
T = Trace of Precipitation, MM = Missing Value Source: NWS Daily Summary

Daily Weather History Graph

Daily Weather History Graph

Search for Another Location

Airport or City:

Trip Planner

Search our weather history database for the weather conditions in past years. The results will help you decide how hot, cold, wet, or windy it might be!

Date:

Astronomy

Oct. 14, 2011 Rise Set
Actual Time 7:23 AM EDT 6:48 PM EDT
Civil Twilight 6:58 AM EDT 7:13 PM EDT
Nautical Twilight 6:29 AM EDT 7:41 PM EDT
Astronomical Twilight 6:01 AM EDT 8:10 PM EDT
Moon 8:12 PM EDT (10/14) 9:39 AM EDT (10/14)
Length of Visible Light 12h 14m
Length of Day
11h 25m
Waning Gibbous, 94% of the Moon is Illuminated
Oct 14
Waning Gibbous
Oct 19
Last Quarter
Oct 26
New
Nov 2
First Quarter
Nov 10
Full

Hourly Weather History & Observations

Time (EDT) Temp. Dew Point Humidity Pressure Visibility Wind Dir Wind Speed Gust Speed Precip Events Conditions
12:56 AM 62.1 °F 60.1 °F 93% 29.72 in 10.0 mi SW 8.1 mph - 0.06 in Rain Light Rain
1:56 AM 61.0 °F 60.1 °F 97% 29.71 in 10.0 mi WSW 6.9 mph - 0.00 in   Overcast
2:56 AM 60.1 °F 59.0 °F 96% 29.71 in 10.0 mi West 6.9 mph - N/A   Overcast
3:56 AM 60.1 °F 59.0 °F 96% 29.71 in 10.0 mi WSW 6.9 mph - N/A   Clear
4:56 AM 59.0 °F 59.0 °F 100% 29.71 in 10.0 mi West 6.9 mph - N/A   Clear
5:56 AM 59.0 °F 57.9 °F 96% 29.72 in 10.0 mi WSW 8.1 mph - N/A   Clear
6:56 AM 59.0 °F 57.9 °F 96% 29.74 in 10.0 mi West 9.2 mph - N/A   Clear
7:56 AM 59.0 °F 57.9 °F 96% 29.76 in 10.0 mi West 11.5 mph - N/A   Clear
8:56 AM 62.1 °F 59.0 °F 90% 29.78 in 10.0 mi West 10.4 mph - N/A   Partly Cloudy
9:56 AM 64.9 °F 57.9 °F 78% 29.79 in 10.0 mi West 13.8 mph - N/A   Partly Cloudy
10:56 AM 69.1 °F 57.9 °F 68% 29.82 in 10.0 mi West 10.4 mph 19.6 mph N/A   Partly Cloudy
11:56 AM 72.0 °F 57.0 °F 59% 29.82 in 10.0 mi WNW 15.0 mph 20.7 mph N/A   Partly Cloudy
12:56 PM 75.0 °F 55.0 °F 50% 29.81 in 10.0 mi West 16.1 mph - N/A   Partly Cloudy
1:56 PM 77.0 °F 50.0 °F 39% 29.79 in 10.0 mi West 16.1 mph 25.3 mph N/A   Clear
2:56 PM 78.1 °F 46.0 °F 32% 29.78 in 10.0 mi WNW 19.6 mph 27.6 mph N/A   Clear
3:56 PM 78.1 °F 45.0 °F 31% 29.78 in 10.0 mi WNW 17.3 mph 24.2 mph N/A   Clear
4:56 PM 78.1 °F 45.0 °F 31% 29.79 in 10.0 mi WNW 12.7 mph - N/A   Clear
5:56 PM 75.9 °F 46.0 °F 35% 29.81 in 10.0 mi WNW 11.5 mph - N/A   Clear
6:56 PM 69.1 °F 51.1 °F 53% 29.84 in 10.0 mi WSW 5.8 mph - N/A   Clear
7:56 PM 66.0 °F 52.0 °F 60% 29.87 in 10.0 mi WSW 5.8 mph - N/A   Clear
8:56 PM 61.0 °F 52.0 °F 72% 29.88 in 10.0 mi WSW 5.8 mph - N/A   Clear
9:56 PM 63.0 °F 50.0 °F 63% 29.91 in 10.0 mi WSW 6.9 mph - N/A   Clear
10:56 PM 63.0 °F 50.0 °F 63% 29.93 in 10.0 mi WSW 6.9 mph - N/A   Clear
11:56 PM 62.1 °F 48.9 °F 62% 29.94 in 10.0 mi West 6.9 mph - N/A   Clear